Time,TemperatureF,DewpointF,PressureIn,WindDirection,WindDirectionDegrees,WindSpeedMPH,WindSpeedGustMPH,Humidity,HourlyPrecipIn,Conditions,Clouds,dailyrainin,SolarRadiationWatts/m^2,SoftwareType,DateUTC
2013-01-11 00:14:00,35.9,32.0,30.06,East,85,7.0,14.0,87,0.10,,,0.04,0,weatherlink.com 1.10,2013-01-11 05:14:00,
2013-01-11 00:29:00,35.9,33.0,30.05,East,96,0.0,10.0,88,0.12,,,0.08,0,weatherlink.com 1.10,2013-01-11 05:29:00,
2013-01-11 00:44:00,35.9,33.0,30.05,SSE,159,0.0,9.0,89,0.14,,,0.11,0,weatherlink.com 1.10,2013-01-11 05:44:00,
2013-01-11 00:59:00,36.0,33.0,30.05,East,95,1.0,8.0,89,0.21,,,0.21,0,weatherlink.com 1.10,2013-01-11 05:59:00,
2013-01-11 01:14:00,36.2,33.0,30.03,East,84,0.0,6.0,89,0.24,,,0.28,0,weatherlink.com 1.10,2013-01-11 06:14:00,
2013-01-11 01:29:00,36.4,34.0,30.02,ESE,109,3.0,6.0,90,0.24,,,0.32,0,weatherlink.com 1.10,2013-01-11 06:29:00,
2013-01-11 01:44:00,36.8,34.0,30.01,East,99,0.0,8.0,90,0.23,,,0.35,0,weatherlink.com 1.10,2013-01-11 06:44:00,
2013-01-11 01:59:00,37.0,34.0,30.00,ESE,123,1.0,7.0,90,0.16,,,0.38,0,weatherlink.com 1.10,2013-01-11 06:59:00,
2013-01-11 02:14:00,37.1,35.0,30.00,ESE,103,2.0,8.0,91,0.14,,,0.42,0,weatherlink.com 1.10,2013-01-11 07:14:00,
2013-01-11 02:29:00,37.3,35.0,29.99,East,87,6.0,8.0,91,0.10,,,0.42,0,weatherlink.com 1.10,2013-01-11 07:29:00,
2013-01-11 02:44:00,37.7,35.0,29.98,ESE,107,2.0,7.0,91,0.08,,,0.43,0,weatherlink.com 1.10,2013-01-11 07:44:00,
2013-01-11 02:59:00,37.9,36.0,29.96,ENE,71,2.0,8.0,91,0.05,,,0.43,0,weatherlink.com 1.10,2013-01-11 07:59:00,
2013-01-11 03:14:00,38.2,36.0,29.96,ESE,107,2.0,10.0,91,0.01,,,0.43,0,weatherlink.com 1.10,2013-01-11 08:14:00,
2013-01-11 03:29:00,38.5,36.0,29.95,East,79,5.0,9.0,91,0.01,,,0.43,0,weatherlink.com 1.10,2013-01-11 08:29:00,
2013-01-11 03:44:00,38.5,36.0,29.94,ESE,121,2.0,8.0,91,0.00,,,0.43,0,weatherlink.com 1.10,2013-01-11 08:44:00,
2013-01-11 03:59:00,38.6,36.0,29.92,East,90,0.0,10.0,91,0.00,,,0.43,0,weatherlink.com 1.10,2013-01-11 08:59:00,
2013-01-11 04:14:00,38.7,36.0,29.90,East,94,0.0,7.0,91,0.00,,,0.43,0,weatherlink.com 1.10,2013-01-11 09:14:00,
2013-01-11 04:29:00,38.8,37.0,29.88,East,86,0.0,8.0,92,0.00,,,0.43,0,weatherlink.com 1.10,2013-01-11 09:29:00,
2013-01-11 04:44:00,39.1,37.0,29.88,East,88,2.0,8.0,92,0.00,,,0.43,0,weatherlink.com 1.10,2013-01-11 09:44:00,
2013-01-11 04:59:00,39.5,37.0,29.86,East,93,3.0,8.0,92,0.00,,,0.43,0,weatherlink.com 1.10,2013-01-11 09:59:00,
2013-01-11 05:14:00,39.5,37.0,29.85,ESE,111,0.0,7.0,92,0.01,,,0.44,0,weatherlink.com 1.10,2013-01-11 10:14:00,
2013-01-11 05:29:00,39.6,38.0,29.84,ESE,117,0.0,4.0,92,0.01,,,0.44,0,weatherlink.com 1.10,2013-01-11 10:29:00,
2013-01-11 05:45:00,40.0,38.0,29.83,ENE,77,2.0,5.0,92,0.01,,,0.44,0,weatherlink.com 1.10,2013-01-11 10:45:00,
2013-01-11 06:00:00,40.4,38.0,29.81,East,83,0.0,7.0,92,0.02,,,0.45,0,weatherlink.com 1.10,2013-01-11 11:00:00,
2013-01-11 06:15:00,40.9,39.0,29.81,ESE,119,1.0,5.0,92,0.03,,,0.47,0,weatherlink.com 1.10,2013-01-11 11:15:00,
2013-01-11 06:30:00,41.3,39.0,29.80,ESE,113,0.0,7.0,92,0.05,,,0.49,0,weatherlink.com 1.10,2013-01-11 11:30:00,
2013-01-11 06:45:00,41.8,40.0,29.79,East,101,0.0,5.0,92,0.05,,,0.49,0,weatherlink.com 1.10,2013-01-11 11:45:00,
2013-01-11 07:00:00,42.3,40.0,29.78,East,95,0.0,3.0,92,0.04,,,0.49,0,weatherlink.com 1.10,2013-01-11 12:00:00,
2013-01-11 07:15:00,42.6,41.0,29.77,East,95,0.0,2.0,92,0.03,,,0.50,0,weatherlink.com 1.10,2013-01-11 12:15:00,
2013-01-11 07:30:00,43.1,41.0,29.75,East,87,0.0,6.0,93,0.01,,,0.50,0,weatherlink.com 1.10,2013-01-11 12:30:00,
2013-01-11 07:45:00,44.0,42.0,29.74,East,92,0.0,5.0,93,0.01,,,0.50,0,weatherlink.com 1.10,2013-01-11 12:45:00,
2013-01-11 08:00:00,44.9,43.0,29.75,SE,142,0.0,3.0,93,0.01,,,0.50,0,weatherlink.com 1.10,2013-01-11 13:00:00,
2013-01-11 08:15:00,45.4,44.0,29.75,East,84,3.0,5.0,93,0.00,,,0.50,0,weatherlink.com 1.10,2013-01-11 13:15:00,
2013-01-11 08:30:00,45.9,44.0,29.75,West,277,0.0,5.0,93,0.00,,,0.50,9,weatherlink.com 1.10,2013-01-11 13:30:00,
2013-01-11 08:45:00,46.1,44.0,29.75,SSE,157,0.0,2.0,93,0.00,,,0.50,12,weatherlink.com 1.10,2013-01-11 13:45:00,
2013-01-11 09:00:00,46.3,44.0,29.75,ESE,109,0.0,4.0,93,0.00,,,0.50,21,weatherlink.com 1.10,2013-01-11 14:00:00,
2013-01-11 09:15:00,47.0,45.0,29.75,SSE,159,1.0,6.0,93,0.00,,,0.50,16,weatherlink.com 1.10,2013-01-11 14:15:00,
2013-01-11 09:30:00,47.7,46.0,29.75,SSW,194,0.0,7.0,93,0.00,,,0.50,18,weatherlink.com 1.10,2013-01-11 14:30:00,
2013-01-11 09:45:00,47.9,46.0,29.75,South,169,1.0,7.0,93,0.00,,,0.50,16,weatherlink.com 1.10,2013-01-11 14:45:00,
2013-01-11 10:00:00,48.2,46.0,29.75,SSE,151,2.0,6.0,93,0.00,,,0.50,21,weatherlink.com 1.10,2013-01-11 15:00:00,
2013-01-11 10:15:00,48.6,47.0,29.74,SW,214,2.0,8.0,93,0.01,,,0.51,42,weatherlink.com 1.10,2013-01-11 15:15:00,
2013-01-11 10:30:00,49.1,47.0,29.74,SSE,168,7.0,10.0,93,0.01,,,0.51,35,weatherlink.com 1.10,2013-01-11 15:30:00,
2013-01-11 10:45:00,49.7,48.0,29.74,SW,228,1.0,5.0,93,0.01,,,0.51,44,weatherlink.com 1.10,2013-01-11 15:45:00,
2013-01-11 11:00:00,50.3,48.0,29.73,South,184,0.0,9.0,93,0.01,,,0.51,58,weatherlink.com 1.10,2013-01-11 16:00:00,
2013-01-11 11:15:00,50.7,49.0,29.74,SW,225,0.0,5.0,93,0.00,,,0.51,35,weatherlink.com 1.10,2013-01-11 16:15:00,
2013-01-11 11:31:00,50.9,49.0,29.73,SW,225,0.0,8.0,93,0.00,,,0.51,54,weatherlink.com 1.10,2013-01-11 16:31:00,
2013-01-11 11:46:00,51.2,49.0,29.73,SW,224,2.0,7.0,93,0.00,,,0.51,47,weatherlink.com 1.10,2013-01-11 16:46:00,
2013-01-11 12:01:00,51.3,49.0,29.73,WSW,251,2.0,6.0,93,0.00,,,0.51,46,weatherlink.com 1.10,2013-01-11 17:01:00,
2013-01-11 12:16:00,51.5,50.0,29.72,WSW,254,0.0,10.0,93,0.00,,,0.51,37,weatherlink.com 1.10,2013-01-11 17:16:00,
2013-01-11 12:31:00,51.9,50.0,29.72,SSW,207,4.0,11.0,93,0.00,,,0.51,33,weatherlink.com 1.10,2013-01-11 17:31:00,
2013-01-11 12:46:00,52.1,51.0,29.72,West,264,3.0,12.0,94,0.00,,,0.51,44,weatherlink.com 1.10,2013-01-11 17:46:00,
2013-01-11 13:01:00,51.9,50.0,29.72,SW,233,7.0,14.0,93,0.00,,,0.51,39,weatherlink.com 1.10,2013-01-11 18:01:00,
2013-01-11 13:18:00,51.2,49.0,29.73,WSW,238,5.0,20.0,93,0.00,,,0.51,67,weatherlink.com 1.10,2013-01-11 18:18:00,
2013-01-11 13:31:00,50.9,49.0,29.73,WSW,257,5.0,20.0,93,0.00,,,0.51,58,weatherlink.com 1.10,2013-01-11 18:31:00,
2013-01-11 13:46:00,50.5,49.0,29.74,SW,222,15.0,16.0,93,0.00,,,0.51,91,weatherlink.com 1.10,2013-01-11 18:46:00,
2013-01-11 14:01:00,50.2,48.0,29.74,WSW,241,7.0,16.0,93,0.00,,,0.51,62,weatherlink.com 1.10,2013-01-11 19:01:00,
2013-01-11 14:16:00,49.9,48.0,29.74,WSW,249,13.0,16.0,93,0.00,,,0.51,54,weatherlink.com 1.10,2013-01-11 19:16:00,
2013-01-11 14:31:00,49.8,48.0,29.75,SSW,192,12.0,15.0,93,0.00,,,0.51,42,weatherlink.com 1.10,2013-01-11 19:31:00,
2013-01-11 14:46:00,49.7,48.0,29.75,SSW,212,3.0,14.0,93,0.00,,,0.51,77,weatherlink.com 1.10,2013-01-11 19:46:00,
2013-01-11 15:01:00,49.8,48.0,29.77,WSW,241,5.0,14.0,93,0.00,,,0.51,44,weatherlink.com 1.10,2013-01-11 20:01:00,
2013-01-11 15:16:00,49.6,48.0,29.77,WSW,257,3.0,15.0,93,0.00,,,0.51,39,weatherlink.com 1.10,2013-01-11 20:16:00,
2013-01-11 15:31:00,49.3,47.0,29.78,SW,232,6.0,13.0,93,0.00,,,0.51,30,weatherlink.com 1.10,2013-01-11 20:31:00,
2013-01-11 15:46:00,49.0,47.0,29.78,WSW,257,6.0,17.0,93,0.00,,,0.51,63,weatherlink.com 1.10,2013-01-11 20:46:00,
2013-01-11 16:01:00,49.0,47.0,29.79,WSW,253,6.0,14.0,93,0.00,,,0.51,26,weatherlink.com 1.10,2013-01-11 21:01:00,
2013-01-11 16:16:00,48.9,47.0,29.80,WSW,240,7.0,16.0,92,0.00,,,0.51,25,weatherlink.com 1.10,2013-01-11 21:16:00,
2013-01-11 16:31:00,48.8,47.0,29.80,WSW,240,8.0,11.0,92,0.00,,,0.51,19,weatherlink.com 1.10,2013-01-11 21:31:00,
2013-01-11 16:46:00,48.8,47.0,29.80,WSW,250,9.0,11.0,92,0.00,,,0.51,21,weatherlink.com 1.10,2013-01-11 21:46:00,
2013-01-11 17:01:00,48.9,47.0,29.80,WSW,248,3.0,15.0,92,0.00,,,0.51,11,weatherlink.com 1.10,2013-01-11 22:01:00,
2013-01-11 17:16:00,49.0,47.0,29.81,WSW,252,7.0,11.0,91,0.00,,,0.51,9,weatherlink.com 1.10,2013-01-11 22:16:00,
2013-01-11 17:31:00,49.1,47.0,29.81,WSW,246,3.0,12.0,91,0.00,,,0.51,7,weatherlink.com 1.10,2013-01-11 22:31:00,
2013-01-11 17:46:00,49.0,46.0,29.81,SW,234,4.0,8.0,90,0.00,,,0.51,5,weatherlink.com 1.10,2013-01-11 22:46:00,
2013-01-11 18:01:00,48.9,46.0,29.81,WSW,250,1.0,3.0,90,0.00,,,0.51,5,weatherlink.com 1.10,2013-01-11 23:01:00,
2013-01-11 18:16:00,48.8,46.0,29.80,WSW,250,4.0,4.0,90,0.00,,,0.51,0,weatherlink.com 1.10,2013-01-11 23:16:00,
2013-01-11 18:31:00,48.7,46.0,29.80,SSW,193,1.0,7.0,89,0.00,,,0.51,0,weatherlink.com 1.10,2013-01-11 23:31:00,
2013-01-11 18:46:00,48.7,46.0,29.80,South,187,0.0,7.0,89,0.00,,,0.51,0,weatherlink.com 1.10,2013-01-11 23:46:00,
2013-01-11 19:01:00,48.7,46.0,29.82,SW,217,0.0,6.0,89,0.00,,,0.51,0,weatherlink.com 1.10,2013-01-12 00:01:00,
2013-01-11 19:16:00,48.7,45.0,29.82,SSE,164,2.0,15.0,88,0.00,,,0.51,0,weatherlink.com 1.10,2013-01-12 00:16:00,
2013-01-11 19:31:00,48.6,45.0,29.82,WSW,237,0.0,6.0,88,0.00,,,0.51,0,weatherlink.com 1.10,2013-01-12 00:31:00,
2013-01-11 19:45:00,48.5,45.0,29.81,WSW,240,0.0,5.0,88,0.00,,,0.51,0,weatherlink.com 1.10,2013-01-12 00:45:00,
2013-01-11 20:00:00,48.1,45.0,29.80,WSW,240,0.0,3.0,88,0.00,,,0.51,0,weatherlink.com 1.10,2013-01-12 01:00:00,
2013-01-11 20:15:00,47.6,44.0,29.79,WSW,238,0.0,2.0,87,0.00,,,0.51,0,weatherlink.com 1.10,2013-01-12 01:15:00,
2013-01-11 20:30:00,47.2,44.0,29.79,WSW,240,0.0,0.0,88,0.00,,,0.51,0,weatherlink.com 1.10,2013-01-12 01:30:00,
2013-01-11 20:45:00,46.8,44.0,29.80,WSW,240,0.0,2.0,88,0.00,,,0.51,0,weatherlink.com 1.10,2013-01-12 01:45:00,
2013-01-11 21:00:00,46.4,43.0,29.80,WSW,240,0.0,1.0,88,0.00,,,0.51,0,weatherlink.com 1.10,2013-01-12 02:00:00,
2013-01-11 21:15:00,46.1,43.0,29.80,WSW,239,0.0,0.0,88,0.00,,,0.51,0,weatherlink.com 1.10,2013-01-12 02:15:00,
2013-01-11 21:33:00,46.0,43.0,29.80,WSW,240,0.0,1.0,89,0.00,,,0.51,0,weatherlink.com 1.10,2013-01-12 02:33:00,
2013-01-11 21:45:00,45.6,43.0,29.79,WSW,238,0.0,3.0,89,0.00,,,0.51,0,weatherlink.com 1.10,2013-01-12 02:45:00,
2013-01-11 22:00:00,45.6,43.0,29.79,WSW,238,0.0,3.0,89,0.00,,,0.51,0,weatherlink.com 1.10,2013-01-12 03:00:00,
2013-01-11 22:15:00,46.0,43.0,29.78,SSW,199,0.0,3.0,90,0.00,,,0.51,0,weatherlink.com 1.10,2013-01-12 03:15:00,
2013-01-11 22:30:00,46.3,44.0,29.78,SSW,192,2.0,3.0,90,0.00,,,0.51,0,weatherlink.com 1.10,2013-01-12 03:30:00,
2013-01-11 22:45:00,46.8,44.0,29.77,SSE,160,0.0,8.0,90,0.00,,,0.51,0,weatherlink.com 1.10,2013-01-12 03:45:00,
2013-01-11 23:00:00,47.3,45.0,29.78,SSE,157,0.0,7.0,90,0.00,,,0.51,0,weatherlink.com 1.10,2013-01-12 04:00:00,
2013-01-11 23:15:00,47.7,45.0,29.78,ESE,116,0.0,6.0,90,0.00,,,0.51,0,weatherlink.com 1.10,2013-01-12 04:15:00,
2013-01-11 23:30:00,47.8,45.0,29.77,South,183,0.0,5.0,90,0.00,,,0.51,0,weatherlink.com 1.10,2013-01-12 04:30:00,
2013-01-11 23:45:00,48.0,45.0,29.76,SE,134,0.0,4.0,90,0.00,,,0.51,0,weatherlink.com 1.10,2013-01-12 04:45:00,